MMS 1

导读

MMS 1是美国NASA磁层多尺度任务(MMS)中的首颗卫星,于2015年3月13日发射升空。该任务共包含4颗航天器,MMS 1与其他卫星以四面体编队飞行,核心目标是对地球磁层中的“磁场重联”现象开展三维观测,研究空间磁场爆炸物理过程,助力揭示空间天气与宇宙磁效应机制,项目总投入约11亿美元,为空间物理研究提供了关键数据支撑。

基本信息
目录编号:
40482
目录名称:
MMS 1
国际标识:
2015-011A
轨道中心:
EARTH
卫星名称:
MMS 1
卫星全名:
--
卫星状态:
在轨 (已飞行4203 天)
发射日期:
2015-03-13 UTC
国别 :
美国 (US)
星等 :
--
该卫星已列入 空间交会检测服务 Space Conjunction Data Service (SCDS) ,当前飞行风险评估等级: 无高风险
轨道信息
数据来源 国际轨道数据
星历时间: 2026-09-14T06:00:02+0800
4小时前
查看轨道信息
半长轴: 98322.5km
偏心率: 0.8267435
轨道倾角: 72.953°
近地点辐角 169.393°
升交点赤经 347.763°
平近点角 349.764°
近地点: 10656.875km
远地点: 173231.851km
周期: 5113.745分钟
每日圈数: 0.281594
详细信息
使用方式:
暂无
2D轨道图
3D轨道图
轨道高度分析图
轨道倾角分析图
轨道综合分析图
查看轨道综合分析图
与全量物体交会距离演化趋势 订阅飞行安全评估服务
与全量物体交会风险概率演化趋势 订阅飞行安全评估服务